TimeCDT,TemperatureF,Dew PointF,Humidity,Sea Level PressureIn,VisibilityMPH,Wind Direction,Wind SpeedMPH,Gust SpeedMPH,PrecipitationIn,Events,Conditions,WindDirDegrees,DateUTC
12:53 AM,64.0,55.0,73,29.62,10.0,SSE,13.8,-,N/A,,Overcast,150,2013-03-22 05:53:00
1:53 AM,64.0,55.0,73,29.63,9.0,South,8.1,-,N/A,,Overcast,190,2013-03-22 06:53:00
2:53 AM,64.0,57.0,78,29.61,9.0,SSE,11.5,-,N/A,,Overcast,160,2013-03-22 07:53:00
3:53 AM,64.9,57.9,78,29.60,8.0,South,10.4,-,N/A,,Overcast,170,2013-03-22 08:53:00
4:53 AM,64.9,59.0,81,29.59,8.0,SSE,9.2,-,N/A,,Overcast,150,2013-03-22 09:53:00
5:37 AM,64.4,59.0,83,29.62,8.0,SSE,8.1,-,N/A,,Overcast,160,2013-03-22 10:37:00
5:48 AM,64.4,59.0,83,29.62,9.0,SSE,9.2,-,N/A,,Overcast,160,2013-03-22 10:48:00
5:53 AM,64.9,59.0,81,29.61,9.0,SSE,9.2,-,N/A,,Overcast,150,2013-03-22 10:53:00
6:53 AM,64.9,60.1,84,29.64,9.0,SE,3.5,-,N/A,,Overcast,130,2013-03-22 11:53:00
7:53 AM,64.9,60.1,84,29.67,7.0,SSE,3.5,-,N/A,,Overcast,150,2013-03-22 12:53:00
8:03 AM,64.4,60.8,88,29.69,7.0,ESE,3.5,-,N/A,,Overcast,110,2013-03-22 13:03:00
8:15 AM,57.2,48.2,72,29.70,8.0,NNE,17.3,25.3,N/A,,Overcast,20,2013-03-22 13:15:00
8:27 AM,53.6,44.6,72,29.71,9.0,NNE,13.8,21.9,N/A,,Overcast,30,2013-03-22 13:27:00
8:53 AM,52.0,44.1,74,29.71,8.0,NNE,13.8,-,N/A,,Overcast,30,2013-03-22 13:53:00
9:53 AM,51.1,45.0,80,29.74,4.0,NE,13.8,-,N/A,,Haze,40,2013-03-22 14:53:00
10:34 AM,51.8,46.4,82,29.76,4.0,NNE,13.8,-,N/A,,Haze,30,2013-03-22 15:34:00
10:53 AM,52.0,46.0,80,29.75,4.0,NNE,12.7,-,N/A,,Haze,30,2013-03-22 15:53:00
11:53 AM,54.0,46.9,77,29.75,4.0,NNE,11.5,-,N/A,,Haze,30,2013-03-22 16:53:00
12:02 PM,53.6,46.4,77,29.77,4.0,North,11.5,-,N/A,,Haze,10,2013-03-22 17:02:00
12:53 PM,53.1,46.0,77,29.76,4.0,North,10.4,-,N/A,,Haze,350,2013-03-22 17:53:00
1:53 PM,54.0,46.0,75,29.76,4.0,North,9.2,-,N/A,,Haze,10,2013-03-22 18:53:00
2:53 PM,50.0,45.0,83,29.76,3.0,NNW,10.4,-,N/A,,Haze,330,2013-03-22 19:53:00
3:53 PM,50.0,45.0,83,29.76,3.0,North,12.7,17.3,N/A,,Haze,350,2013-03-22 20:53:00
4:53 PM,50.0,45.0,83,29.77,5.0,NNE,12.7,20.7,N/A,,Haze,20,2013-03-22 21:53:00
5:53 PM,50.0,45.0,83,29.78,5.0,NNE,12.7,-,N/A,,Haze,20,2013-03-22 22:53:00
6:53 PM,48.9,44.1,83,29.79,6.0,NNE,11.5,-,N/A,,Haze,20,2013-03-22 23:53:00
7:53 PM,48.9,44.1,83,29.81,7.0,North,10.4,-,N/A,,Overcast,10,2013-03-23 00:53:00
8:53 PM,48.0,45.0,89,29.81,3.0,NNE,8.1,-,N/A,,Overcast,30,2013-03-23 01:53:00
9:50 PM,48.2,44.6,87,29.83,2.5,NNE,5.8,-,N/A,,Overcast,20,2013-03-23 02:50:00
9:53 PM,48.0,45.0,89,29.83,2.5,North,6.9,-,N/A,,Overcast,10,2013-03-23 02:53:00
10:53 PM,48.0,45.0,89,29.86,2.0,North,8.1,-,N/A,,Overcast,350,2013-03-23 03:53:00
11:25 PM,48.2,44.6,87,29.85,1.8,North,8.1,-,N/A,,Overcast,360,2013-03-23 04:25:00
11:53 PM,46.9,45.0,93,29.84,1.8,NNE,6.9,-,N/A,,Overcast,20,2013-03-23 04:53:00